Rochelle, IL

3:20 AM CST on February 18, 2018 (GMT -0600)
Rochelle

Weather History for KRPJ - December, 2011

Change the Weather History Date:

Friday, December 30, 2011

  Actual Average (KRFD) Record (KRFD)
Temperature  
Mean Temperature 36 °F -  
Max Temperature 41 °F 29 °F 58 °F (2002)
Min Temperature 32 °F 13 °F -12 °F (1963)
Degree Days  
Heating Degree Days 28    
Moisture  
Dew Point 35 °F    
Average Humidity 96    
Maximum Humidity 99    
Minimum Humidity 91    
Precipitation  
Precipitation 0.20 in - - ()
Sea Level Pressure  
Sea Level Pressure 29.60 in    
Wind  
Wind Speed 10 mph (NE)    
Max Wind Speed 18 mph    
Max Gust Speed 24 mph    
Visibility 6 miles    
Events Rain    
Averages and records for this station are not official NWS values.
T = Trace of Precipitation, MM = Missing Value Source: NWS Daily Summary

Daily Weather History Graph

Daily Weather History Graph

Search for Another Location

Airport or City:

Trip Planner

Search our weather history database for the weather conditions in past years. The results will help you decide how hot, cold, wet, or windy it might be!

Date:

Astronomy

Dec. 30, 2011 Rise Set
Actual Time 7:23 AM CST 4:33 PM CST
Civil Twilight 6:52 AM CST 5:05 PM CST
Nautical Twilight 6:17 AM CST 5:40 PM CST
Astronomical Twilight 5:43 AM CST 6:14 PM CST
Moon 10:37 AM CST (12/30) 11:15 PM CST (12/30)
Length of Visible Light 10h 13m
Length of Day
9h 10m
Waxing Crescent, 36% of the Moon is Illuminated
Dec 30
Waxing Crescent
Jan 1
First Quarter
Jan 9
Full
Jan 16
Last Quarter
Jan 23
New

Hourly Weather History & Observations

Time (CST) Temp. Windchill Dew Point Humidity Pressure Visibility Wind Dir Wind Speed Gust Speed Precip Events Conditions
12:15 AM 32.0 °F 25.6 °F 31.6 °F 99% 29.67 in 10.0 mi SSE 6.9 mph - N/A   Mostly Cloudy
12:35 AM 32.9 °F 27.5 °F 32.0 °F 96% 29.66 in 10.0 mi SE 5.8 mph - N/A   Mostly Cloudy
12:55 AM 33.3 °F 27.1 °F 32.0 °F 95% 29.65 in 10.0 mi ESE 6.9 mph - N/A   Overcast
1:15 AM 33.4 °F 28.1 °F 32.0 °F 94% 29.65 in 10.0 mi East 5.8 mph - N/A   Overcast
1:35 AM 33.8 °F 27.7 °F 32.0 °F 93% 29.65 in 10.0 mi SE 6.9 mph - N/A   Mostly Cloudy
1:55 AM 34.7 °F 28.8 °F 32.2 °F 91% 29.66 in 10.0 mi SE 6.9 mph - N/A   Light Drizzle
2:15 AM 34.7 °F 28.1 °F 32.4 °F 91% 29.66 in 10.0 mi SE 8.1 mph - N/A Rain Light Rain
2:55 AM 34.9 °F 28.3 °F 33.1 °F 93% 29.64 in 10.0 mi East 8.1 mph - N/A Rain Rain
3:15 AM 35.1 °F 27.9 °F 33.1 °F 92% 29.65 in 10.0 mi SE 9.2 mph - 0.01 in Rain Light Rain
3:55 AM 34.9 °F 26.6 °F 33.4 °F 94% 29.62 in 10.0 mi East 11.5 mph - 0.04 in Rain Light Rain
4:15 AM 35.1 °F 26.4 °F 33.8 °F 95% 29.60 in 10.0 mi East 12.7 mph - N/A Rain Light Rain
4:35 AM 35.1 °F 25.9 °F 33.8 °F 95% 29.59 in 10.0 mi East 13.8 mph - 0.01 in Rain Light Rain
4:55 AM 35.1 °F 25.9 °F 33.8 °F 95% 29.59 in 10.0 mi East 13.8 mph - 0.02 in Rain Light Rain
5:35 AM 35.6 °F 26.2 °F 34.2 °F 94% 29.58 in 7.0 mi ESE 15.0 mph - 0.03 in Rain Rain
5:55 AM 35.6 °F 25.9 °F 34.2 °F 94% 29.56 in 7.0 mi East 16.1 mph - 0.05 in Rain Light Rain
6:15 AM 35.8 °F 25.4 °F 34.3 °F 94% 29.54 in 7.0 mi East 18.4 mph 23.0 mph N/A Rain Light Rain
7:35 AM 36.0 °F 26.7 °F 35.1 °F 97% 29.52 in 7.0 mi East 15.0 mph - N/A   Overcast
7:55 AM 36.5 °F 27.0 °F 35.6 °F 97% 29.51 in 5.0 mi East 16.1 mph - N/A Rain Light Rain
8:15 AM 36.7 °F 28.4 °F 36.1 °F 98% 29.51 in 3.0 mi East 12.7 mph - N/A Rain Light Rain
8:35 AM 36.7 °F 28.0 °F 36.1 °F 98% 29.51 in 2.5 mi East 13.8 mph - 0.01 in Rain Rain
9:15 AM 37.6 °F 29.6 °F 37.4 °F 99% 29.49 in 2.5 mi East 12.7 mph - N/A   Overcast
9:35 AM 38.1 °F 29.8 °F 37.6 °F 98% 29.49 in 2.5 mi East 13.8 mph - N/A   Overcast
9:55 AM 38.5 °F 30.3 °F 38.3 °F 99% 29.49 in 2.0 mi East 13.8 mph - N/A   Overcast
10:15 AM 38.7 °F 31.4 °F 38.3 °F 99% 29.48 in 1.5 mi East 11.5 mph - N/A   Overcast
10:55 AM 39.7 °F 33.2 °F 39.4 °F 99% 29.46 in 1.0 mi East 10.4 mph - 0.01 in Rain Rain
11:15 AM 40.1 °F 34.1 °F 39.6 °F 98% 29.45 in 1.2 mi East 9.2 mph - 0.02 in Rain Rain
11:35 AM 40.3 °F 34.9 °F 40.1 °F 99% 29.44 in 1.5 mi East 8.1 mph - 0.06 in Rain Rain
11:55 AM 40.3 °F 35.5 °F 40.1 °F 99% 29.43 in 2.5 mi East 6.9 mph - 0.07 in   Light Drizzle
12:35 PM 40.8 °F 35.0 °F 40.3 °F 98% 29.42 in 3.0 mi East 9.2 mph - N/A   Light Drizzle
1:15 PM 41.0 °F 36.4 °F 40.5 °F 98% 29.43 in 2.0 mi ENE 6.9 mph - N/A   Overcast
1:35 PM 40.8 °F 36.2 °F 40.1 °F 97% 29.43 in 2.0 mi NE 6.9 mph - N/A   Light Drizzle
1:55 PM 40.6 °F 35.4 °F 40.1 °F 98% 29.44 in 2.0 mi NE 8.1 mph - N/A   Overcast
2:15 PM 40.5 °F 34.6 °F 40.1 °F 99% 29.45 in 1.8 mi NNE 9.2 mph - N/A Rain Light Rain
2:35 PM 40.3 °F 33.9 °F 40.1 °F 99% 29.47 in 3.0 mi NNE 10.4 mph - N/A   Light Drizzle
2:55 PM 40.3 °F 34.4 °F 39.7 °F 98% 29.49 in 4.0 mi NNE 9.2 mph - N/A Rain Light Rain
3:15 PM 40.1 °F 33.6 °F 39.4 °F 97% 29.50 in 5.0 mi NNE 10.4 mph - N/A   Overcast
3:35 PM 40.1 °F 32.7 °F 39.4 °F 97% 29.52 in 10.0 mi NNE 12.7 mph - N/A   Overcast
3:55 PM 39.7 °F 32.3 °F 39.0 °F 97% 29.54 in 10.0 mi North 12.7 mph - N/A   Overcast
4:15 PM 39.6 °F 31.3 °F 38.8 °F 97% 29.54 in 4.0 mi North 15.0 mph - N/A   Overcast
4:35 PM 39.4 °F 32.3 °F 38.7 °F 97% 29.56 in 3.0 mi North 11.5 mph - N/A Rain Light Rain
4:55 PM 39.0 °F 29.9 °F 37.9 °F 96% 29.59 in 5.0 mi North 17.3 mph 23.0 mph N/A   Overcast
5:15 PM 38.3 °F 29.7 °F 36.9 °F 95% 29.61 in 10.0 mi NNW 15.0 mph 19.6 mph N/A   Overcast
5:35 PM 36.1 °F 25.9 °F 35.1 °F 96% 29.63 in 10.0 mi North 18.4 mph 21.9 mph N/A   Overcast
5:55 PM 35.6 °F 25.5 °F 34.7 °F 97% 29.64 in 10.0 mi North 17.3 mph - N/A   Overcast
6:35 PM 35.6 °F 25.5 °F 34.0 °F 94% 29.69 in 10.0 mi North 17.3 mph 24.2 mph N/A   Overcast
6:55 PM 35.2 °F 26.2 °F 34.0 °F 95% 29.69 in 7.0 mi North 13.8 mph - N/A Rain Light Rain
7:15 PM 34.9 °F 26.6 °F 34.0 °F 97% 29.71 in 7.0 mi North 11.5 mph - N/A   Light Drizzle
7:35 PM 34.9 °F 25.7 °F 33.8 °F 96% 29.73 in 7.0 mi NNW 13.8 mph - N/A   Overcast
7:55 PM 34.3 °F 25.0 °F 33.1 °F 95% 29.74 in 7.0 mi NNW 13.8 mph - N/A   Overcast
8:15 PM 34.0 °F 25.0 °F 32.9 °F 96% 29.74 in 5.0 mi NNW 12.7 mph - N/A   Overcast
8:35 PM 33.8 °F 25.3 °F 32.7 °F 96% 29.76 in 5.0 mi NNW 11.5 mph - N/A   Overcast
8:55 PM 33.8 °F 23.9 °F 32.7 °F 96% 29.77 in 5.0 mi NNW 15.0 mph - N/A   Overcast
9:15 PM 33.8 °F 24.8 °F 32.4 °F 94% 29.79 in 5.0 mi NNW 12.7 mph - N/A   Overcast
9:35 PM 33.8 °F 25.3 °F 32.0 °F 93% 29.79 in 5.0 mi NNW 11.5 mph - N/A   Overcast
9:55 PM 33.6 °F 25.6 °F 32.0 °F 94% 29.79 in 5.0 mi NNW 10.4 mph - N/A   Overcast
10:15 PM 33.4 °F 25.4 °F 32.0 °F 94% 29.81 in 5.0 mi NNW 10.4 mph - N/A   Overcast
10:55 PM 33.1 °F 23.9 °F 32.0 °F 96% 29.84 in 5.0 mi NW 12.7 mph - N/A   Overcast
11:15 PM 33.1 °F 24.4 °F 32.0 °F 96% 29.84 in 5.0 mi WNW 11.5 mph - N/A   Overcast
11:35 PM 32.9 °F 25.3 °F 32.0 °F 96% 29.84 in 5.0 mi NW 9.2 mph - N/A   Overcast
11:55 PM 32.9 °F 25.3 °F 32.0 °F 96% 29.84 in 5.0 mi NNW 9.2 mph - N/A   Overcast